Regional Weather Roundup
Issued by NWS

Home | Current Version | Previous Version | Text Only | Print | Product List | Glossary On
Versions: 1 2 3 4 5 6 7 8 9 10 11 12 13 14 15 16 17 18 19 20 21 22 23 24 25 26 27 28 29 30 31 32 33 34 35 36 37 38 39 40 41 42 43 44 45 46 47 48 49 50
000
ASUS43 KTOP 220959
RWRKS

WEATHER ROUNDUP FOR KANSAS
NATIONAL WEATHER SERVICE GOODLAND KS
500 AM CDT TUE JUL 22 2014

NOTE:  "FAIR" INDICATES FEW OR NO CLOUDS BELOW 12,000 FEET WITH NO
SIGNIFICANT WEATHER AND/OR OBSTRUCTIONS TO VISIBILITY.

KSZ001>006-013>018-027>032-041>047-221100-
NORTHWEST KANSAS

CITY           SKY/WX    TMP DP  RH WIND       PRES   REMARKS
GOODLAND       CLEAR     66  60  81 VRB7G20   30.10R
HAYS           CLEAR     70  59  68 S3        30.02R
HILL CITY      CLEAR     70  60  70 W3        30.02S
RUSSELL        PTCLDY    70  67  90 SE5       30.00R
$$

KSZ061>065-074>080-084>089-221100-
SOUTHWEST KANSAS

CITY           SKY/WX    TMP DP  RH WIND       PRES   REMARKS
DODGE CITY     MOCLDY    73  62  68 CALM      30.06R
ELKHART          N/A     69  64  84 SW6         N/A
GARDEN CITY    CLEAR     66  63  90 SW5       30.07R
GREAT BEND     MOCLDY    72  66  83 SE6       30.01R
LIBERAL        CLEAR     70  64  83 W3        30.10R
$$

KSZ066>073-081>083-090>101-221100-
SOUTHEAST KANSAS

CITY           SKY/WX    TMP DP  RH WIND       PRES   REMARKS
CHANUTE        PTCLDY    75  71  87 S9        30.03R
COFFEYVILLE    FOG       73  71  93 S7        30.03R VSB 3/4
HUTCHINSON     MOCLDY    77  72  84 S6        30.02R
MEDICINE LODGE   N/A     77  71  82 SE5       30.02R
NEWTON         MOCLDY    77  70  78 S10       30.06R
PARSONS        PTCLDY    74  70  87 S5        30.04S
WICHITA INTL   MOCLDY    76  73  91 S7        30.03R
WICHITA JABRA  MOCLDY    76  74  93 S6        30.03R
WINFIELD       MOCLDY    76  75  97 S6        30.04R
$$

KSZ007>012-019>026-033>040-048>060-102>105-221100-
NORTHEAST KANSAS

CITY           SKY/WX    TMP DP  RH WIND       PRES   REMARKS
CONCORDIA      CLEAR     77  72  84 SW12      29.98R
EMPORIA        MOCLDY    74  73  97 S9        30.01R FOG
LAWRENCE       CLEAR     78  74  87 S7        29.99R
MANHATTAN      CLEAR     77  74  90 SW5       29.97S
OLATHE IND     CLEAR     74  73  97 S6        30.02R FOG
OLATHE EXE     CLEAR     74  72  93 S7        30.01R
SALINA         CLEAR     75  71  87 S6        29.99R
TOPEKA BILLARD CLEAR     80  75  84 S7        29.98R
TOPEKA FORBES  CLEAR     77  74  90 S13       29.98S
$$


USA.gov is the U.S. government's official web portal to all federal, state and local government web resources and services.